User: anonymous   Login
Location: Oshawa
(43.9000°N, 78.8670°W)
Time: 07:57:38
(UTC-04:00)
Language:

CZ-4C R/B - Orbit

View from above orbital plane
View from above orbital plane
View from above satellite
View from above satellite

Ground track
Ground track

The orbit data is extracted from the following two-line orbital elements,

1 32290U 07055B   14296.17131616  .00011826  00000-0  44748-3 0  9933
2 32290 097.5660 011.8415 0084881 322.8096 090.1972 15.23724051383754
Epoch (UTC): 23 October 2014 04:06:41
Eccentricity: 0.0084881
inclination: 97.5660°
perigee height: 436 km
apogee height: 553 km
right ascension of ascending node: 11.8415°
argument of perigee: 322.8096°
revolutions per day: 15.23724051
mean anomaly at epoch: 90.1972°
orbit number at epoch: 38375

The dashed part of the orbit path shows where the satellite is in the earth's shadow,  

DLR